Weather History for Knox, IN

Change the Weather History Date:

Friday, November 1, 2013

  Actual Average (KVPZ) Record (KVPZ)
Temperature  
Mean Temperature 47 °F 47 °F  
Max Temperature 96 °F 56 °F 76 °F (1999)
Min Temperature 44 °F 38 °F 26 °F (2002)
Degree Days  
Heating Degree Days 18 18  
Month to date heating degree days 18  
Since 1 July heating degree days 548  
Cooling Degree Days 0 0  
Month to date cooling degree days 0  
Year to date cooling degree days 713  
Moisture  
Dew Point 43 °F    
Average Humidity 87    
Maximum Humidity 98    
Minimum Humidity 69    
Precipitation  
Precipitation 0.00 in 0.14 in 1.26 in (2004)
Month to date precipitation 0.14  
Year to date precipitation 32.14  
Sea Level Pressure  
Sea Level Pressure 29.59 in    
Wind  
Wind Speed 16 mph (WSW)    
Max Wind Speed 26 mph    
Max Gust Speed 34 mph    
Visibility 9 miles    
Events      
T = Trace of Precipitation, MM = Missing Value Source: NWS Daily Summary

Daily Weather History Graph

Daily Weather History Graph

Search for Another Location

Airport:

Trip Planner

Search our weather history database for the weather conditions in past years. The results will help you decide how hot, cold, wet, or windy it might be!

Date:

Astronomy

Nov. 01, 2013 Rise Set
Actual Time 7:18 AM CDT 5:41 PM CDT
Civil Twilight 6:49 AM CDT 6:10 PM CDT
Nautical Twilight 6:16 AM CDT 6:42 PM CDT
Astronomical Twilight 5:44 AM CDT 7:15 PM CDT
Moon 5:08 AM CDT (11/1) 4:35 PM CDT (11/1)
Length of Visible Light 11h 20m
Length of Day
10h 23m
Waning Crescent, 4% of the Moon is Illuminated
Nov 1
Waning Crescent
Nov 3
New
Nov 9
First Quarter
Nov 17
Full
Nov 25
Last Quarter

Hourly Weather History & Observations

Time (CDT) Temp. Windchill Dew Point Humidity Pressure Visibility Wind Dir Wind Speed Gust Speed Precip Events Conditions
12:15 AM 48.9 °F - 46.2 °F 90% 29.37 in 10.0 mi West 19.6 mph 26.5 mph N/A   Overcast
12:35 AM 48.0 °F - 45.1 °F 90% 29.39 in 10.0 mi West 24.2 mph 32.2 mph N/A   Mostly Cloudy
12:55 AM 46.9 °F - 44.2 °F 90% 29.41 in 10.0 mi West 18.4 mph 25.3 mph N/A   Mostly Cloudy
1:15 AM 47.3 °F - 44.8 °F 91% 29.42 in 10.0 mi West 25.3 mph 29.9 mph N/A   Overcast
1:35 AM 46.9 °F - 43.7 °F 88% 29.43 in 10.0 mi West 26.5 mph 34.5 mph N/A   Overcast
1:55 AM 46.4 °F 39.2 °F 43.2 °F 88% 29.43 in 10.0 mi West 18.4 mph 31.1 mph N/A   Overcast
2:15 AM 46.4 °F 38.1 °F 43.0 °F 88% 29.45 in 10.0 mi West 24.2 mph 31.1 mph N/A   Overcast
2:35 AM 46.2 °F 38.7 °F 42.4 °F 87% 29.45 in 10.0 mi West 19.6 mph 29.9 mph N/A   Overcast
2:55 AM 45.9 °F 39.1 °F 41.9 °F 86% 29.45 in 10.0 mi WSW 16.1 mph 26.5 mph N/A   Mostly Cloudy
3:15 AM 45.5 °F 37.8 °F 41.9 °F 87% 29.47 in 10.0 mi West 19.6 mph 26.5 mph N/A   Mostly Cloudy
3:35 AM 45.1 °F 37.3 °F 41.5 °F 87% 29.48 in 10.0 mi West 19.6 mph 28.8 mph N/A   Overcast
3:55 AM 45.0 °F 36.9 °F 41.0 °F 86% 29.48 in 10.0 mi WSW 20.7 mph 25.3 mph N/A   Overcast
4:15 AM 45.0 °F 37.4 °F 41.4 °F 87% 29.49 in 10.0 mi WSW 18.4 mph - N/A   Mostly Cloudy
4:35 AM 45.5 °F 38.6 °F 41.7 °F 87% 29.50 in 10.0 mi WSW 16.1 mph 23.0 mph N/A   Overcast
4:55 AM 45.3 °F 38.4 °F 42.1 °F 88% 29.51 in 10.0 mi WSW 16.1 mph 19.6 mph N/A   Overcast
5:15 AM 45.1 °F 38.8 °F 42.6 °F 91% 29.52 in 3.0 mi WSW 13.8 mph - N/A   Overcast
5:35 AM 44.8 °F 38.7 °F 43.5 °F 95% 29.52 in 5.0 mi WSW 12.7 mph 20.7 mph N/A   Overcast
5:55 AM 45.3 °F 39.3 °F 43.7 °F 94% 29.53 in 7.0 mi WSW 12.7 mph - N/A   Overcast
6:15 AM 45.7 °F 39.1 °F 43.9 °F 93% 29.54 in 7.0 mi WSW 15.0 mph 21.9 mph N/A   Overcast
6:35 AM 45.9 °F 40.0 °F 43.7 °F 92% 29.54 in 10.0 mi WSW 12.7 mph 18.4 mph N/A   Mostly Cloudy
6:55 AM 45.7 °F 39.8 °F 42.8 °F 90% 29.55 in 10.0 mi WSW 12.7 mph 18.4 mph N/A   Clear
7:15 AM 45.3 °F 40.6 °F 43.0 °F 92% 29.55 in 7.0 mi SW 9.2 mph - N/A   Clear
7:35 AM 45.0 °F 38.9 °F 43.0 °F 93% 29.57 in 10.0 mi WSW 12.7 mph 17.3 mph N/A   Scattered Clouds
7:55 AM 45.5 °F 39.9 °F 42.6 °F 90% 29.57 in 10.0 mi WSW 11.5 mph - N/A   Scattered Clouds
8:15 AM 45.9 °F 40.0 °F 42.6 °F 88% 29.57 in 10.0 mi WSW 12.7 mph - N/A   Scattered Clouds
8:35 AM 46.8 °F - 43.3 °F 88% 29.58 in 10.0 mi WSW 11.5 mph 20.7 mph N/A   Overcast
8:55 AM 46.8 °F - 43.3 °F 88% 29.58 in 10.0 mi WSW 12.7 mph - N/A   Overcast
9:15 AM 47.3 °F - 43.5 °F 87% 29.58 in 10.0 mi WSW 17.3 mph 21.9 mph N/A   Overcast
9:35 AM 47.3 °F - 43.3 °F 86% 29.58 in 10.0 mi WSW 17.3 mph - N/A   Overcast
9:55 AM 46.9 °F - 43.0 °F 86% 29.58 in 10.0 mi WSW 13.8 mph - N/A   Overcast
10:15 AM 46.8 °F - 43.0 °F 87% 29.59 in 10.0 mi West 9.2 mph 18.4 mph N/A   Overcast
10:35 AM 46.8 °F - 43.0 °F 87% 29.60 in 10.0 mi West 13.8 mph - N/A   Overcast
10:55 AM 47.1 °F - 42.6 °F 84% 29.60 in 10.0 mi WSW 12.7 mph 21.9 mph N/A   Overcast
11:15 AM 47.5 °F - 42.3 °F 82% 29.60 in 10.0 mi WSW 13.8 mph 21.9 mph N/A   Overcast
11:35 AM 47.1 °F - 41.7 °F 81% 29.60 in 10.0 mi West 12.7 mph 21.9 mph N/A   Overcast
11:55 AM 46.9 °F - 41.9 °F 83% 29.61 in 10.0 mi West 15.0 mph 21.9 mph N/A   Overcast
12:15 PM 46.9 °F - 41.4 °F 81% 29.61 in 10.0 mi WSW 16.1 mph - N/A   Overcast
12:35 PM 48.6 °F - 40.6 °F 74% 29.60 in 10.0 mi WSW 13.8 mph 19.6 mph N/A   Overcast
12:55 PM 50.0 °F - 41.0 °F 71% 29.60 in 10.0 mi WSW 15.0 mph - N/A   Overcast
1:15 PM 49.6 °F - 39.9 °F 69% 29.61 in 10.0 mi West 16.1 mph 21.9 mph N/A   Overcast
1:35 PM 49.3 °F - 40.3 °F 71% 29.61 in 10.0 mi West 11.5 mph - N/A   Overcast
1:55 PM 49.1 °F - 40.1 °F 71% 29.61 in 10.0 mi WSW 11.5 mph - N/A   Overcast
2:15 PM 49.8 °F - 40.6 °F 71% 29.61 in 10.0 mi West 11.5 mph - N/A   Overcast
2:35 PM 49.8 °F - 40.3 °F 70% 29.61 in 10.0 mi WSW 17.3 mph 21.9 mph N/A   Overcast
2:55 PM 49.5 °F - 40.1 °F 70% 29.62 in 10.0 mi West 11.5 mph 18.4 mph N/A   Overcast
3:15 PM 49.1 °F - 40.8 °F 73% 29.63 in 10.0 mi WSW 11.5 mph - N/A   Overcast
5:15 PM 49.1 °F - 42.1 °F 77% 29.65 in 10.0 mi WSW 9.2 mph - N/A   Overcast
5:35 PM 48.9 °F - 42.3 °F 78% 29.65 in 10.0 mi WSW 9.2 mph - N/A   Overcast
5:55 PM 48.4 °F - 42.8 °F 81% 29.66 in 10.0 mi WSW 8.1 mph - N/A   Overcast
6:15 PM 48.2 °F - 43.0 °F 82% 29.67 in 10.0 mi West 9.2 mph - N/A   Overcast
6:35 PM 48.2 °F - 43.2 °F 83% 29.68 in 10.0 mi West 9.2 mph - N/A   Overcast
6:55 PM 47.8 °F - 43.2 °F 84% 29.69 in 10.0 mi West 8.1 mph 16.1 mph N/A   Overcast
7:15 PM 47.5 °F - 42.8 °F 84% 29.70 in 10.0 mi West 12.7 mph - N/A   Overcast
7:35 PM 46.8 °F - 43.2 °F 87% 29.70 in 5.0 mi West 9.2 mph - N/A   Overcast
7:55 PM 45.7 °F 42.0 °F 43.7 °F 93% 29.70 in 5.0 mi West 6.9 mph - N/A   Overcast
8:15 PM 45.3 °F 40.6 °F 43.7 °F 94% 29.70 in 7.0 mi West 9.2 mph - N/A   Overcast
8:35 PM 45.1 °F 39.9 °F 43.3 °F 93% 29.71 in 5.0 mi West 10.4 mph - N/A   Overcast
8:55 PM 44.8 °F 39.4 °F 43.2 °F 94% 29.71 in 5.0 mi West 10.4 mph - N/A   Overcast
9:15 PM 44.6 °F 39.7 °F 43.2 °F 95% 29.71 in 5.0 mi West 9.2 mph - N/A   Overcast
9:35 PM 44.6 °F 39.7 °F 43.2 °F 95% 29.72 in 5.0 mi West 9.2 mph - N/A   Overcast
9:55 PM 44.2 °F 39.2 °F 43.2 °F 96% 29.72 in 5.0 mi West 9.2 mph - N/A   Overcast
10:15 PM 44.1 °F 39.0 °F 43.3 °F 97% 29.73 in 7.0 mi West 9.2 mph - N/A   Overcast
10:35 PM 44.1 °F 39.0 °F 43.3 °F 97% 29.73 in 7.0 mi West 9.2 mph - N/A   Overcast
10:55 PM 44.1 °F 39.5 °F 43.5 °F 98% 29.73 in 5.0 mi West 8.1 mph - N/A   Overcast
11:15 PM 44.1 °F 39.0 °F 43.3 °F 97% 29.73 in 5.0 mi West 9.2 mph - N/A   Overcast
11:35 PM 44.1 °F 39.0 °F 43.3 °F 97% 29.73 in 5.0 mi West 9.2 mph - N/A   Overcast
11:55 PM 44.1 °F 39.5 °F 43.3 °F 97% 29.73 in 5.0 mi West 8.1 mph - N/A   Overcast